STARLINK-37710, 69826

Orbit data source: Space-Track

STARLINK-37710, 69826 is a payload satellite owned by SpaceX/Seattle (US) in LEO that was launched on Sun, 05 Jul 2026 UTC via an FALCON 9 launch vehicle from the Air Force Eastern Test Range (AFETR). Payload-class satellites include a variety of spacecraft equipped with specific instruments for various scientific and technological missions. These include communications satellites like Starlink; space stations such as the ISS; scientific satellites like the Hubble; Earth observation satellites from companies like Planet Labs, Umbra, and HawkEye 360; GPS; miniature CubeSats for education and research; and military/defense satellites.

Loading next visibility...
Identifier
69826, 2026-154H
Orbit
LEO
Country
Flag of USUS
Related business
Manufacturer
SpaceX/Seattle
Mission
Operational spacecraft
Bus & Motor
STARLINK V2MO, Unknown motor
Mass
575 kg wet, ~530 kg dry
Launch date (UTC)
2026-07-05 (2 months ago)
Launch vehicle
FALCON 9
Launch site
Air Force Eastern Test Range (AFETR)
Object type
Payload
Rocket body
Debris
Shape & HBR
BOX + PAN, 17.7 m
Radar Cross Section
Large (>1 m²)

Expand to show TLE details & history
Last TLE update: 22 hours ago

TLE from 22 hours ago
0 STARLINK-37710
1 69826U 26154H   26236.00782654  .00019425  00000-0  56620-3 0  9993
2 69826  53.1595 100.5112 0001094 107.0360 253.0763 15.35407965  9013
Epoch: 2026-08-24T00:11Z
TLE epoch observation values (Epoch: 2026-08-24T00:11:16.213Z)
Latitude
Longitude
125.39794°
Altitude
460.829 km
Speed
7.637 km/s
True Right ascension
06h 42m 02s
True Declination
0° 00' 00"
Sunlit
Object was in daylight at epoch
Visualization orbit readout
Latitude
Unknown
Longitude
Unknown
Altitude
Unknown
Speed
Unknown
Apparent Right ascension
Unknown
Apparent Declination
Unknown
Sunlit
N/A
Visualization observer readout
Local Sidereal Time
13:47:31
Azimuth
Unknown
Elevation
Unknown
Doppler factor
Unknown
Orbital elements
Apogee altitude
460.714 km
Perigee altitude
459.218 km
Semi-major axis
6,838.103 km
Eccentricity
0.00011
Inclination
53.1595°
RAAN
100.5112°
Arg. of periapsis
107.036°
True anomaly
253.06431°
Mean anomaly
253.0763°
Eccentric anomaly
253.0703°
Mean motion
3.83831 °/min
Orbital period
93.79 mins
BSTAR
0.0005662
Loading maneuver chart data...
Computing Atmospheric mass density...
Loading historical data...
Loading historical data...
Loading historical data...
Loading historical data...
Loading historical data...
Loading historical data...
Loading historical data...

Documentation

Showing up to 5 results
|